Las Cruces, NM

7:06 PM MDT on May 23, 2017 (GMT -0600)
Las Cruces International

Weather History for KLRU - February, 2014

Change the Weather History Date:

Thursday, February 27, 2014

  Actual Average Record
Temperature  
Mean Temperature 58 °F -  
Max Temperature 71 °F 56 °F 75 °F (2016)
Min Temperature 44 °F 34 °F 28 °F (2015)
Degree Days  
Heating Degree Days 8    
Growing Degree Days 8 (Base 50)    
Moisture  
Dew Point 27 °F    
Average Humidity 30    
Maximum Humidity 46    
Minimum Humidity 17    
Precipitation  
Precipitation 0.00 in - - ()
Sea Level Pressure  
Sea Level Pressure 29.94 in    
Wind  
Wind Speed 14 mph (West)    
Max Wind Speed 32 mph    
Max Gust Speed 44 mph    
Visibility 10 miles    
Events      
Averages and records for this station are not official NWS values.
T = Trace of Precipitation, MM = Missing Value Source: NWS Daily Summary

Daily Weather History Graph

Daily Weather History Graph

Search for Another Location

Airport or City:

Trip Planner

Search our weather history database for the weather conditions in past years. The results will help you decide how hot, cold, wet, or windy it might be!

Date:

Astronomy

Feb. 27, 2014 Rise Set
Actual Time 6:37 AM MST 6:03 PM MST
Civil Twilight 6:12 AM MST 6:28 PM MST
Nautical Twilight 5:44 AM MST 6:56 PM MST
Astronomical Twilight 5:15 AM MST 7:25 PM MST
Moon 5:07 AM MST (2/27) 4:35 PM MST (2/27)
Length of Visible Light 12h 15m
Length of Day
11h 26m
Waning Crescent, 4% of the Moon is Illuminated
Feb 27
Waning Crescent
Mar 1
New
Mar 8
First Quarter
Mar 16
Full
Mar 23
Last Quarter

Hourly Weather History & Observations

Time (MST) Temp. Windchill Dew Point Humidity Pressure Visibility Wind Dir Wind Speed Gust Speed Precip Events Conditions
12:15 AM 48.4 °F - 23.2 °F 37% 29.99 in 10.0 mi WNW 4.6 mph - N/A   Clear
12:35 AM 47.5 °F - 23.5 °F 39% 30.00 in 10.0 mi WNW 6.9 mph - N/A   Clear
12:55 AM 48.2 °F - 23.0 °F 37% 30.00 in 10.0 mi West 6.9 mph - N/A   Clear
1:15 AM 50.5 °F - 24.3 °F 36% 30.01 in 10.0 mi WSW 8.1 mph - N/A   Clear
1:35 AM 50.2 °F - 23.9 °F 36% 30.01 in 10.0 mi WSW 9.2 mph - N/A   Clear
1:55 AM 50.4 °F - 24.3 °F 36% 30.00 in 10.0 mi West 8.1 mph - N/A   Clear
2:15 AM 50.4 °F - 24.3 °F 36% 30.00 in 10.0 mi West 8.1 mph - N/A   Clear
2:35 AM 51.6 °F - 24.8 °F 35% 30.00 in 10.0 mi West 10.4 mph - N/A   Clear
2:55 AM 51.8 °F - 24.8 °F 35% 29.99 in 10.0 mi West 11.5 mph - N/A   Clear
3:15 AM 50.9 °F - 24.8 °F 36% 30.00 in 10.0 mi West 10.4 mph - N/A   Clear
3:35 AM 50.0 °F - 24.6 °F 37% 30.00 in 10.0 mi West 11.5 mph - N/A   Clear
3:55 AM 48.4 °F - 24.8 °F 40% 30.00 in 10.0 mi West 10.4 mph - N/A   Scattered Clouds
4:15 AM 48.4 °F - 24.6 °F 39% 29.99 in 10.0 mi West 11.5 mph - N/A   Scattered Clouds
4:35 AM 47.3 °F - 24.6 °F 41% 30.00 in 10.0 mi West 10.4 mph - N/A   Clear
4:55 AM 48.4 °F - 24.6 °F 39% 30.00 in 10.0 mi West 10.4 mph - N/A   Clear
5:15 AM 47.5 °F - 24.6 °F 41% 30.01 in 10.0 mi West 10.4 mph - N/A   Clear
5:35 AM 47.1 °F - 24.8 °F 42% 30.01 in 10.0 mi West 10.4 mph - N/A   Clear
5:55 AM 47.3 °F - 25.2 °F 42% 30.01 in 10.0 mi West 11.5 mph - N/A   Clear
6:15 AM 46.0 °F 41.0 °F 25.2 °F 44% 30.01 in 10.0 mi West 10.4 mph - N/A   Clear
6:35 AM 45.0 °F 39.3 °F 25.0 °F 46% 30.01 in 10.0 mi West 11.5 mph - N/A   Clear
6:55 AM 44.8 °F 39.4 °F 25.2 °F 46% 30.01 in 10.0 mi West 10.4 mph - N/A   Clear
7:15 AM 46.4 °F 41.5 °F 25.5 °F 44% 30.01 in 10.0 mi West 10.4 mph - N/A   Clear
7:35 AM 48.6 °F - 25.7 °F 41% 30.01 in 10.0 mi West 9.2 mph - N/A   Clear
7:55 AM 50.9 °F - 25.7 °F 38% 30.02 in 10.0 mi WSW 11.5 mph - N/A   Clear
8:15 AM 53.1 °F - 25.9 °F 35% 30.03 in 10.0 mi WSW 11.5 mph - N/A   Clear
8:35 AM 55.2 °F - 26.2 °F 33% 30.03 in 10.0 mi WSW 12.7 mph - N/A   Clear
8:55 AM 57.0 °F - 26.6 °F 31% 30.03 in 10.0 mi West 12.7 mph - N/A   Clear
9:15 AM 57.9 °F - 27.0 °F 31% 30.03 in 10.0 mi WSW 6.9 mph - N/A   Clear
9:35 AM 60.8 °F - 27.9 °F 29% 30.03 in 10.0 mi West 11.5 mph - N/A   Clear
9:55 AM 61.7 °F - 28.0 °F 28% 30.03 in 10.0 mi WSW 15.0 mph - N/A   Clear
10:15 AM 63.5 °F - 29.1 °F 27% 30.03 in 10.0 mi WSW 12.7 mph 20.7 mph N/A   Clear
10:35 AM 64.0 °F - 29.7 °F 27% 30.02 in 10.0 mi WSW 15.0 mph 19.6 mph N/A   Clear
10:55 AM 64.9 °F - 30.0 °F 27% 30.00 in 10.0 mi West 16.1 mph 24.2 mph N/A   Clear
11:15 AM 65.3 °F - 29.7 °F 26% 30.00 in 10.0 mi West 24.2 mph 31.1 mph N/A   Clear
11:35 AM 65.7 °F - 28.9 °F 25% 30.00 in 10.0 mi West 19.6 mph 28.8 mph N/A   Clear
11:55 AM 66.4 °F - 29.3 °F 25% 29.99 in 10.0 mi WSW 17.3 mph 26.5 mph N/A   Clear
12:15 PM 68.2 °F - 28.8 °F 23% 29.96 in 10.0 mi WSW 23.0 mph 28.8 mph N/A   Clear
12:35 PM 68.4 °F - 28.2 °F 22% 29.95 in 10.0 mi WSW 23.0 mph 33.4 mph N/A   Clear
12:55 PM 70.2 °F - 27.5 °F 20% 29.94 in 10.0 mi West 21.9 mph 32.2 mph N/A   Clear
1:15 PM 70.2 °F - 26.4 °F 19% 29.93 in 10.0 mi West 29.9 mph 38.0 mph N/A   Clear
1:35 PM 70.7 °F - 26.6 °F 19% 29.90 in 10.0 mi WSW 28.8 mph 40.3 mph N/A   Clear
1:55 PM 70.5 °F - 26.2 °F 19% 29.89 in 10.0 mi WSW 28.8 mph 42.6 mph N/A   Clear
2:15 PM 70.9 °F - 25.3 °F 18% 29.88 in 10.0 mi WSW 28.8 mph 34.5 mph N/A   Clear
2:35 PM 70.9 °F - 24.1 °F 17% 29.88 in 10.0 mi West 19.6 mph 32.2 mph N/A   Clear
2:55 PM 71.4 °F - 25.7 °F 18% 29.87 in 10.0 mi West 20.7 mph 34.5 mph N/A   Clear
3:15 PM 71.8 °F - 26.4 °F 18% 29.87 in 10.0 mi West 25.3 mph 38.0 mph N/A   Clear
3:35 PM 71.2 °F - 26.2 °F 19% 29.86 in 10.0 mi West 31.1 mph 42.6 mph N/A   Clear
3:55 PM 71.4 °F - 26.4 °F 19% 29.84 in 10.0 mi West 32.2 mph 42.6 mph N/A   Clear
4:15 PM 70.7 °F - 26.4 °F 19% 29.84 in 10.0 mi West 28.8 mph 43.7 mph N/A   Clear
4:35 PM 70.3 °F - 26.2 °F 19% 29.84 in 10.0 mi WSW 32.2 mph 40.3 mph N/A   Clear
4:55 PM 70.2 °F - 25.7 °F 19% 29.83 in 10.0 mi WSW 31.1 mph 41.4 mph N/A   Clear
5:15 PM 69.4 °F - 26.2 °F 20% 29.82 in 10.0 mi West 27.6 mph 38.0 mph N/A   Clear
5:35 PM 68.5 °F - 26.6 °F 21% 29.82 in 10.0 mi West 25.3 mph 34.5 mph N/A   Clear
5:55 PM 67.5 °F - 26.4 °F 21% 29.83 in 10.0 mi West 21.9 mph 32.2 mph N/A   Clear
6:15 PM 66.2 °F - 26.4 °F 22% 29.83 in 10.0 mi West 21.9 mph 27.6 mph N/A   Clear
6:35 PM 65.8 °F - 27.1 °F 23% 29.82 in 10.0 mi West 23.0 mph 29.9 mph N/A   Clear
6:55 PM 64.9 °F - 27.1 °F 24% 29.83 in 10.0 mi West 23.0 mph 27.6 mph N/A   Clear
7:15 PM 64.8 °F - 27.7 °F 25% 29.84 in 10.0 mi West 18.4 mph 24.2 mph N/A   Clear
7:35 PM 63.9 °F - 28.2 °F 26% 29.84 in 10.0 mi West 18.4 mph 26.5 mph N/A   Clear
7:55 PM 63.5 °F - 28.4 °F 27% 29.84 in 10.0 mi West 21.9 mph 26.5 mph N/A   Clear
8:15 PM 62.8 °F - 27.7 °F 27% 29.84 in 10.0 mi West 21.9 mph 29.9 mph N/A   Clear
8:35 PM 62.2 °F - 27.9 °F 27% 29.86 in 10.0 mi West 18.4 mph 27.6 mph N/A   Clear
8:55 PM 61.3 °F - 29.1 °F 30% 29.86 in 10.0 mi West 17.3 mph 26.5 mph N/A   Clear
9:15 PM 60.4 °F - 29.8 °F 31% 29.87 in 10.0 mi West 17.3 mph 28.8 mph N/A   Clear
9:35 PM 59.5 °F - 30.2 °F 33% 29.87 in 10.0 mi West 21.9 mph 28.8 mph N/A   Clear
9:55 PM 59.9 °F - 30.2 °F 33% 29.87 in 10.0 mi West 20.7 mph 28.8 mph N/A   Clear
10:15 PM 59.5 °F - 30.6 °F 33% 29.88 in 10.0 mi West 19.6 mph 27.6 mph N/A   Clear
10:35 PM 59.0 °F - 30.7 °F 34% 29.90 in 10.0 mi West 17.3 mph - N/A   Clear
10:55 PM 59.2 °F - 30.9 °F 34% 29.89 in 10.0 mi West 21.9 mph 27.6 mph N/A   Clear
11:15 PM 59.0 °F - 30.9 °F 35% 29.88 in 10.0 mi West 19.6 mph 31.1 mph N/A   Clear
11:35 PM 59.0 °F - 31.1 °F 35% 29.88 in 10.0 mi West 24.2 mph 32.2 mph N/A   Clear
11:55 PM 57.6 °F - 31.1 °F 37% 29.88 in 10.0 mi West 24.2 mph - N/A   Clear